Data supplied by UK-AIR on 21/3/2019
All Data GMT hour ending 
Status: R =Ratified P=Provisional,P*=As supplied
,,Market Harborough,,,,,,,,,,,,,,,,,,,,,,,
Date,time,"Nitric oxide",status,unit,"Nitrogen dioxide",status,unit,"Nitrogen oxides as nitrogen dioxide",status,unit,"Ozone",status,unit
 
01-01-2018,01:00,0.12271,R,ugm-3,2.89558,R,ugm-3,3.08374,R,ugm-3,70.51473,R,ugm-3
01-01-2018,02:00,,,,,,,,,,66.25724,R,ugm-3
01-01-2018,03:00,0.15339,R,ugm-3,2.83281,R,ugm-3,3.06800,R,ugm-3,69.60004,R,ugm-3
01-01-2018,04:00,0.12271,R,ugm-3,1.55824,R,ugm-3,1.74640,R,ugm-3,70.24864,R,ugm-3
01-01-2018,05:00,0.12271,R,ugm-3,1.51104,R,ugm-3,1.69920,R,ugm-3,73.44176,R,ugm-3
01-01-2018,06:00,0.12271,R,ugm-3,1.36944,R,ugm-3,1.55760,R,ugm-3,74.58929,R,ugm-3
01-01-2018,07:00,0.09204,R,ugm-3,1.22768,R,ugm-3,1.36880,R,ugm-3,73.59144,R,ugm-3
01-01-2018,08:00,0.00000,R,ugm-3,1.41600,R,ugm-3,1.41600,R,ugm-3,70.34843,R,ugm-3
01-01-2018,09:00,0.12271,R,ugm-3,1.41664,R,ugm-3,1.60480,R,ugm-3,66.65638,R,ugm-3
01-01-2018,10:00,0.27611,R,ugm-3,2.03105,R,ugm-3,2.45440,R,ugm-3,62.86455,R,ugm-3
01-01-2018,11:00,0.42950,R,ugm-3,2.40945,R,ugm-3,3.06800,R,ugm-3,61.51745,R,ugm-3
01-01-2018,12:00,0.27611,R,ugm-3,3.06945,R,ugm-3,3.49280,R,ugm-3,64.31143,R,ugm-3
01-01-2018,13:00,0.21475,R,ugm-3,4.67393,R,ugm-3,5.00320,R,ugm-3,63.71272,R,ugm-3
01-01-2018,14:00,0.36814,R,ugm-3,4.95793,R,ugm-3,5.52240,R,ugm-3,64.81036,R,ugm-3
01-01-2018,15:00,0.52153,R,ugm-3,6.42193,R,ugm-3,7.22160,R,ugm-3,64.76047,R,ugm-3
01-01-2018,16:00,0.67492,R,ugm-3,12.18114,R,ugm-3,13.21601,R,ugm-3,55.58025,R,ugm-3
01-01-2018,17:00,0.15339,R,ugm-3,8.73281,R,ugm-3,8.96801,R,ugm-3,55.92949,R,ugm-3
01-01-2018,18:00,0.09204,R,ugm-3,6.46689,R,ugm-3,6.60800,R,ugm-3,61.46756,R,ugm-3
01-01-2018,19:00,0.09204,R,ugm-3,2.97408,R,ugm-3,3.11520,R,ugm-3,72.39402,R,ugm-3
01-01-2018,20:00,0.12271,R,ugm-3,2.40784,R,ugm-3,2.59600,R,ugm-3,74.09036,R,ugm-3
01-01-2018,21:00,0.09204,R,ugm-3,2.54928,R,ugm-3,2.69040,R,ugm-3,76.33553,R,ugm-3
01-01-2018,22:00,0.09204,R,ugm-3,2.07728,R,ugm-3,2.21840,R,ugm-3,76.18585,R,ugm-3
01-01-2018,23:00,0.12271,R,ugm-3,2.59664,R,ugm-3,2.78480,R,ugm-3,75.38757,R,ugm-3
01-01-2018,24:00,0.12271,R,ugm-3,2.21904,R,ugm-3,2.40720,R,ugm-3,70.74757,R,ugm-3
02-01-2018,01:00,0.12269,R,ugm-3,1.82524,R,ugm-3,2.01336,R,ugm-3,69.18427,R,ugm-3
02-01-2018,02:00,,,,,,,,,,64.12849,R,ugm-3
02-01-2018,03:00,0.12269,R,ugm-3,4.15320,R,ugm-3,4.34131,R,ugm-3,59.52175,R,ugm-3
02-01-2018,04:00,0.21470,R,ugm-3,4.10648,R,ugm-3,4.43569,R,ugm-3,56.77767,R,ugm-3
02-01-2018,05:00,0.21470,R,ugm-3,2.97396,R,ugm-3,3.30317,R,ugm-3,57.77552,R,ugm-3
02-01-2018,06:00,0.21470,R,ugm-3,5.85244,R,ugm-3,6.18165,R,ugm-3,55.08132,R,ugm-3
02-01-2018,07:00,0.21470,R,ugm-3,7.55122,R,ugm-3,7.88043,R,ugm-3,55.38068,R,ugm-3
02-01-2018,08:00,0.15336,R,ugm-3,7.50371,R,ugm-3,7.73886,R,ugm-3,55.68003,R,ugm-3
02-01-2018,09:00,0.46008,R,ugm-3,7.12779,R,ugm-3,7.83324,R,ugm-3,56.67788,R,ugm-3
02-01-2018,10:00,0.42941,R,ugm-3,6.70294,R,ugm-3,7.36136,R,ugm-3,52.93594,R,ugm-3
02-01-2018,11:00,0.73613,R,ugm-3,12.98055,R,ugm-3,14.10927,R,ugm-3,48.14626,R,ugm-3
02-01-2018,12:00,0.82814,R,ugm-3,15.57638,R,ugm-3,16.84618,R,ugm-3,47.19831,R,ugm-3
02-01-2018,13:00,0.67478,R,ugm-3,16.28341,R,ugm-3,17.31806,R,ugm-3,50.14196,R,ugm-3
02-01-2018,14:00,0.61344,R,ugm-3,18.92563,R,ugm-3,19.86623,R,ugm-3,47.09852,R,ugm-3
02-01-2018,15:00,0.49075,R,ugm-3,11.65802,R,ugm-3,12.41049,R,ugm-3,55.77982,R,ugm-3
02-01-2018,16:00,0.36807,R,ugm-3,9.25079,R,ugm-3,9.81514,R,ugm-3,58.67358,R,ugm-3
02-01-2018,17:00,0.24538,R,ugm-3,9.39172,R,ugm-3,9.76795,R,ugm-3,57.47616,R,ugm-3
02-01-2018,18:00,0.24538,R,ugm-3,10.19392,R,ugm-3,10.57015,R,ugm-3,57.12691,R,ugm-3
02-01-2018,19:00,0.12269,R,ugm-3,5.94635,R,ugm-3,6.13446,R,ugm-3,63.41337,R,ugm-3
02-01-2018,20:00,0.18403,R,ugm-3,4.86133,R,ugm-3,5.14351,R,ugm-3,66.80606,R,ugm-3
02-01-2018,21:00,0.24538,R,ugm-3,4.53133,R,ugm-3,4.90757,R,ugm-3,65.35918,R,ugm-3
02-01-2018,22:00,0.18403,R,ugm-3,2.40755,R,ugm-3,2.68973,R,ugm-3,66.90584,R,ugm-3
02-01-2018,23:00,0.18403,R,ugm-3,2.36036,R,ugm-3,2.64254,R,ugm-3,64.16176,R,ugm-3
02-01-2018,24:00,0.12269,R,ugm-3,2.07691,R,ugm-3,2.26503,R,ugm-3,71.24649,R,ugm-3
03-01-2018,01:00,0.12266,R,ugm-3,1.25866,R,ugm-3,1.44674,R,ugm-3,76.30226,R,ugm-3
03-01-2018,02:00,,,,,,,,,,80.82585,R,ugm-3
03-01-2018,03:00,0.15333,R,ugm-3,1.69913,R,ugm-3,1.93423,R,ugm-3,83.37037,R,ugm-3
03-01-2018,04:00,0.09200,R,ugm-3,1.32141,R,ugm-3,1.46247,R,ugm-3,83.12091,R,ugm-3
03-01-2018,05:00,0.15333,R,ugm-3,1.51042,R,ugm-3,1.74553,R,ugm-3,80.32693,R,ugm-3
03-01-2018,06:00,0.09200,R,ugm-3,1.65164,R,ugm-3,1.79270,R,ugm-3,79.67832,R,ugm-3
03-01-2018,07:00,0.12266,R,ugm-3,2.21791,R,ugm-3,2.40599,R,ugm-3,76.88434,R,ugm-3
03-01-2018,08:00,0.12266,R,ugm-3,3.58603,R,ugm-3,3.77411,R,ugm-3,75.08821,R,ugm-3
03-01-2018,09:00,0.12266,R,ugm-3,4.43520,R,ugm-3,4.62328,R,ugm-3,73.74112,R,ugm-3
03-01-2018,10:00,0.30666,R,ugm-3,5.28531,R,ugm-3,5.75551,R,ugm-3,71.69552,R,ugm-3
03-01-2018,11:00,0.30666,R,ugm-3,3.87002,R,ugm-3,4.34022,R,ugm-3,73.34198,R,ugm-3
03-01-2018,12:00,0.27599,R,ugm-3,3.39810,R,ugm-3,3.82128,R,ugm-3,74.24004,R,ugm-3
03-01-2018,13:00,0.30666,R,ugm-3,3.39826,R,ugm-3,3.86846,R,ugm-3,73.84090,R,ugm-3
03-01-2018,14:00,0.30666,R,ugm-3,3.20955,R,ugm-3,3.67976,R,ugm-3,73.99058,R,ugm-3
03-01-2018,15:00,0.24533,R,ugm-3,3.86971,R,ugm-3,4.24587,R,ugm-3,72.54370,R,ugm-3
03-01-2018,16:00,0.24533,R,ugm-3,5.33218,R,ugm-3,5.70834,R,ugm-3,70.89724,R,ugm-3
03-01-2018,17:00,0.27599,R,ugm-3,6.60609,R,ugm-3,7.02928,R,ugm-3,67.90369,R,ugm-3
03-01-2018,18:00,0.12266,R,ugm-3,5.94484,R,ugm-3,6.13293,R,ugm-3,69.25079,R,ugm-3
03-01-2018,19:00,0.12266,R,ugm-3,5.00132,R,ugm-3,5.18940,R,ugm-3,69.50025,R,ugm-3
03-01-2018,20:00,0.12266,R,ugm-3,5.42590,R,ugm-3,5.61399,R,ugm-3,67.50455,R,ugm-3
03-01-2018,21:00,0.18399,R,ugm-3,5.66210,R,ugm-3,5.94422,R,ugm-3,67.10541,R,ugm-3
03-01-2018,22:00,0.18399,R,ugm-3,2.45411,R,ugm-3,2.73623,R,ugm-3,70.89724,R,ugm-3
03-01-2018,23:00,0.15333,R,ugm-3,2.26525,R,ugm-3,2.50035,R,ugm-3,70.54800,R,ugm-3
03-01-2018,24:00,0.15333,R,ugm-3,3.63336,R,ugm-3,3.86846,R,ugm-3,66.95574,R,ugm-3
04-01-2018,01:00,0.12264,R,ugm-3,3.01915,R,ugm-3,3.20719,R,ugm-3,68.05337,R,ugm-3
04-01-2018,02:00,,,,,,,,,,66.52333,R,ugm-3
04-01-2018,03:00,0.21462,R,ugm-3,5.56649,R,ugm-3,5.89556,R,ugm-3,65.50885,R,ugm-3
04-01-2018,04:00,0.24528,R,ugm-3,5.33082,R,ugm-3,5.70690,R,ugm-3,65.75832,R,ugm-3
04-01-2018,05:00,0.18396,R,ugm-3,3.77408,R,ugm-3,4.05615,R,ugm-3,64.66068,R,ugm-3
04-01-2018,06:00,0.36791,R,ugm-3,3.77501,R,ugm-3,4.33913,R,ugm-3,61.56735,R,ugm-3
04-01-2018,07:00,0.18396,R,ugm-3,2.87796,R,ugm-3,3.16002,R,ugm-3,65.10971,R,ugm-3
04-01-2018,08:00,0.12264,R,ugm-3,8.63172,R,ugm-3,8.81976,R,ugm-3,53.08562,R,ugm-3
04-01-2018,09:00,0.27594,R,ugm-3,13.11312,R,ugm-3,13.53621,R,ugm-3,56.12906,R,ugm-3
04-01-2018,10:00,0.39857,R,ugm-3,13.67971,R,ugm-3,14.29084,R,ugm-3,53.98369,R,ugm-3
04-01-2018,11:00,3.98572,R,ugm-3,14.73535,R,ugm-3,20.84671,R,ugm-3,43.70583,R,ugm-3
04-01-2018,12:00,1.44099,R,ugm-3,11.37389,R,ugm-3,13.58338,R,ugm-3,47.44777,R,ugm-3
04-01-2018,13:00,0.52121,R,ugm-3,6.84147,R,ugm-3,7.64065,R,ugm-3,65.10971,R,ugm-3
04-01-2018,14:00,0.98110,R,ugm-3,4.95720,R,ugm-3,6.46154,R,ugm-3,70.49810,R,ugm-3
04-01-2018,15:00,,,,,,,,,,70.99703,R,ugm-3
04-01-2018,16:00,0.33725,R,ugm-3,4.90680,R,ugm-3,5.42392,R,ugm-3,68.50240,R,ugm-3
04-01-2018,17:00,0.15330,R,ugm-3,4.57573,R,ugm-3,4.81078,R,ugm-3,75.03832,R,ugm-3
04-01-2018,18:00,0.12264,R,ugm-3,5.04722,R,ugm-3,5.23526,R,ugm-3,76.68477,R,ugm-3
04-01-2018,19:00,0.12264,R,ugm-3,6.13200,R,ugm-3,6.32004,R,ugm-3,74.14026,R,ugm-3
04-01-2018,20:00,0.12264,R,ugm-3,8.77321,R,ugm-3,8.96125,R,ugm-3,69.05122,R,ugm-3
04-01-2018,21:00,0.15330,R,ugm-3,7.59425,R,ugm-3,7.82931,R,ugm-3,67.30498,R,ugm-3
04-01-2018,22:00,0.15330,R,ugm-3,7.73575,R,ugm-3,7.97080,R,ugm-3,64.26154,R,ugm-3
04-01-2018,23:00,0.18396,R,ugm-3,6.55679,R,ugm-3,6.83885,R,ugm-3,60.91874,R,ugm-3
04-01-2018,24:00,0.18396,R,ugm-3,7.12276,R,ugm-3,7.40483,R,ugm-3,57.62584,R,ugm-3
05-01-2018,01:00,0.12261,R,ugm-3,7.04207,R,ugm-3,7.23007,R,ugm-3,56.41179,R,ugm-3
05-01-2018,02:00,,,,,,,,,,52.02125,R,ugm-3
05-01-2018,03:00,0.24523,R,ugm-3,9.95043,R,ugm-3,10.32643,R,ugm-3,53.53465,R,ugm-3
05-01-2018,04:00,0.24523,R,ugm-3,9.99758,R,ugm-3,10.37358,R,ugm-3,58.27444,R,ugm-3
05-01-2018,05:00,0.15327,R,ugm-3,3.06568,R,ugm-3,3.30069,R,ugm-3,71.79531,R,ugm-3
05-01-2018,06:00,0.18392,R,ugm-3,2.59431,R,ugm-3,2.87631,R,ugm-3,69.79961,R,ugm-3
05-01-2018,07:00,0.24523,R,ugm-3,6.88550,R,ugm-3,7.26151,R,ugm-3,56.52820,R,ugm-3
05-01-2018,08:00,0.15327,R,ugm-3,8.77115,R,ugm-3,9.00616,R,ugm-3,50.24175,R,ugm-3
05-01-2018,09:00,0.45980,R,ugm-3,11.69614,R,ugm-3,12.40115,R,ugm-3,50.79057,R,ugm-3
05-01-2018,10:00,0.98090,R,ugm-3,16.17822,R,ugm-3,17.68225,R,ugm-3,50.54110,R,ugm-3
05-01-2018,11:00,1.04221,R,ugm-3,18.30040,R,ugm-3,19.89842,R,ugm-3,55.33078,R,ugm-3
05-01-2018,12:00,0.30653,R,ugm-3,5.56553,R,ugm-3,6.03554,R,ugm-3,71.89509,R,ugm-3
05-01-2018,13:00,0.21457,R,ugm-3,4.62202,R,ugm-3,4.95103,R,ugm-3,71.24649,R,ugm-3
05-01-2018,14:00,0.55176,R,ugm-3,12.16812,R,ugm-3,13.01413,R,ugm-3,55.33078,R,ugm-3
05-01-2018,15:00,0.79698,R,ugm-3,21.92993,R,ugm-3,23.15195,R,ugm-3,46.64949,R,ugm-3
05-01-2018,16:00,0.64372,R,ugm-3,25.46562,R,ugm-3,26.45264,R,ugm-3,43.55615,R,ugm-3
05-01-2018,17:00,0.36784,R,ugm-3,26.92599,R,ugm-3,27.49000,R,ugm-3,38.01809,R,ugm-3
05-01-2018,18:00,0.36784,R,ugm-3,34.98909,R,ugm-3,35.55310,R,ugm-3,28.53851,R,ugm-3
05-01-2018,19:00,0.36784,R,ugm-3,39.79866,R,ugm-3,40.36267,R,ugm-3,20.20646,R,ugm-3
05-01-2018,20:00,0.39849,R,ugm-3,33.48036,R,ugm-3,34.09137,R,ugm-3,22.45163,R,ugm-3
05-01-2018,21:00,0.45980,R,ugm-3,40.08204,R,ugm-3,40.78705,R,ugm-3,18.11098,R,ugm-3
05-01-2018,22:00,0.58241,R,ugm-3,49.74894,R,ugm-3,50.64195,R,ugm-3,9.57936,R,ugm-3
05-01-2018,23:00,0.64372,R,ugm-3,49.37202,R,ugm-3,50.35904,R,ugm-3,7.98280,R,ugm-3
05-01-2018,24:00,0.95025,R,ugm-3,57.86102,R,ugm-3,59.31804,R,ugm-3,3.89162,R,ugm-3
06-01-2018,01:00,1.10329,R,ugm-3,59.52852,R,ugm-3,61.22020,R,ugm-3,3.12660,R,ugm-3
06-01-2018,02:00,,,,,,,,,,18.82610,R,ugm-3
06-01-2018,03:00,0.49035,R,ugm-3,32.95382,R,ugm-3,33.70568,R,ugm-3,23.00044,R,ugm-3
06-01-2018,04:00,0.49035,R,ugm-3,28.05118,R,ugm-3,28.80304,R,ugm-3,22.05249,R,ugm-3
06-01-2018,05:00,0.49035,R,ugm-3,27.39121,R,ugm-3,28.14307,R,ugm-3,22.25206,R,ugm-3
06-01-2018,06:00,0.33712,R,ugm-3,14.80386,R,ugm-3,15.32076,R,ugm-3,37.51916,R,ugm-3
06-01-2018,07:00,0.24517,R,ugm-3,7.82657,R,ugm-3,8.20250,R,ugm-3,43.30669,R,ugm-3
06-01-2018,08:00,0.24517,R,ugm-3,12.44637,R,ugm-3,12.82230,R,ugm-3,32.57980,R,ugm-3
06-01-2018,09:00,0.52100,R,ugm-3,18.76459,R,ugm-3,19.56344,R,ugm-3,22.10238,R,ugm-3
06-01-2018,10:00,1.47105,R,ugm-3,16.03506,R,ugm-3,18.29064,R,ugm-3,26.99184,R,ugm-3
06-01-2018,11:00,0.73552,R,ugm-3,7.07471,R,ugm-3,8.20250,R,ugm-3,41.85981,R,ugm-3
06-01-2018,12:00,0.36776,R,ugm-3,3.25451,R,ugm-3,3.81841,R,ugm-3,43.85551,R,ugm-3
06-01-2018,13:00,0.36776,R,ugm-3,2.45312,R,ugm-3,3.01701,R,ugm-3,42.85766,R,ugm-3
06-01-2018,14:00,0.61294,R,ugm-3,3.25571,R,ugm-3,4.19553,R,ugm-3,48.24605,R,ugm-3
06-01-2018,15:00,0.27582,R,ugm-3,2.40553,R,ugm-3,2.82845,R,ugm-3,55.33078,R,ugm-3
06-01-2018,16:00,0.18388,R,ugm-3,2.54650,R,ugm-3,2.82845,R,ugm-3,56.92734,R,ugm-3
06-01-2018,17:00,0.12259,R,ugm-3,2.49906,R,ugm-3,2.68703,R,ugm-3,63.56305,R,ugm-3
06-01-2018,18:00,0.15324,R,ugm-3,3.01776,R,ugm-3,3.25272,R,ugm-3,64.56090,R,ugm-3
06-01-2018,19:00,0.12259,R,ugm-3,3.25332,R,ugm-3,3.44128,R,ugm-3,64.96004,R,ugm-3
06-01-2018,20:00,0.15324,R,ugm-3,4.66769,R,ugm-3,4.90264,R,ugm-3,60.76907,R,ugm-3
06-01-2018,21:00,0.24517,R,ugm-3,3.25391,R,ugm-3,3.62984,R,ugm-3,63.91229,R,ugm-3
06-01-2018,22:00,0.21453,R,ugm-3,2.49951,R,ugm-3,2.82845,R,ugm-3,64.71057,R,ugm-3
06-01-2018,23:00,0.24517,R,ugm-3,2.12254,R,ugm-3,2.49846,R,ugm-3,65.65853,R,ugm-3
06-01-2018,24:00,0.24517,R,ugm-3,2.21682,R,ugm-3,2.59275,R,ugm-3,63.31358,R,ugm-3
07-01-2018,01:00,0.24512,R,ugm-3,2.70324,R,ugm-3,3.07909,R,ugm-3,61.73365,R,ugm-3
07-01-2018,02:00,,,,,,,,,,63.19717,R,ugm-3
07-01-2018,03:00,0.21448,R,ugm-3,2.82877,R,ugm-3,3.15764,R,ugm-3,63.96219,R,ugm-3
07-01-2018,04:00,0.24512,R,ugm-3,2.02773,R,ugm-3,2.40358,R,ugm-3,62.46541,R,ugm-3
07-01-2018,05:00,0.24512,R,ugm-3,1.83921,R,ugm-3,2.21506,R,ugm-3,58.77337,R,ugm-3
07-01-2018,06:00,0.15320,R,ugm-3,1.65025,R,ugm-3,1.88516,R,ugm-3,59.97079,R,ugm-3
07-01-2018,07:00,0.15320,R,ugm-3,1.36748,R,ugm-3,1.60238,R,ugm-3,60.81896,R,ugm-3
07-01-2018,08:00,0.12256,R,ugm-3,1.93288,R,ugm-3,2.12080,R,ugm-3,59.42197,R,ugm-3
07-01-2018,09:00,0.12256,R,ugm-3,2.07427,R,ugm-3,2.26219,R,ugm-3,59.17251,R,ugm-3
07-01-2018,10:00,0.21448,R,ugm-3,2.07471,R,ugm-3,2.40358,R,ugm-3,61.56735,R,ugm-3
07-01-2018,11:00,0.36769,R,ugm-3,1.98119,R,ugm-3,2.54496,R,ugm-3,64.01208,R,ugm-3
07-01-2018,12:00,0.36769,R,ugm-3,1.74554,R,ugm-3,2.30932,R,ugm-3,66.45681,R,ugm-3
07-01-2018,13:00,0.33705,R,ugm-3,1.27411,R,ugm-3,1.79090,R,ugm-3,65.95789,R,ugm-3
07-01-2018,14:00,0.24512,R,ugm-3,1.36792,R,ugm-3,1.74377,R,ugm-3,68.80176,R,ugm-3
07-01-2018,15:00,0.24512,R,ugm-3,1.50931,R,ugm-3,1.88516,R,ugm-3,71.69552,R,ugm-3
07-01-2018,16:00,0.15320,R,ugm-3,2.35719,R,ugm-3,2.59209,R,ugm-3,71.24649,R,ugm-3
07-01-2018,17:00,0.00000,R,ugm-3,3.06338,R,ugm-3,3.06338,R,ugm-3,70.84735,R,ugm-3
07-01-2018,18:00,0.03064,R,ugm-3,3.25205,R,ugm-3,3.29903,R,ugm-3,69.60004,R,ugm-3
07-01-2018,19:00,0.06128,R,ugm-3,2.96942,R,ugm-3,3.06338,R,ugm-3,68.35273,R,ugm-3
07-01-2018,20:00,0.00000,R,ugm-3,2.92200,R,ugm-3,2.92200,R,ugm-3,68.90154,R,ugm-3
07-01-2018,21:00,0.03064,R,ugm-3,3.29918,R,ugm-3,3.34616,R,ugm-3,68.10326,R,ugm-3
07-01-2018,22:00,0.12256,R,ugm-3,3.29962,R,ugm-3,3.48754,R,ugm-3,68.50240,R,ugm-3
07-01-2018,23:00,0.12256,R,ugm-3,2.78120,R,ugm-3,2.96913,R,ugm-3,69.35058,R,ugm-3
07-01-2018,24:00,0.09192,R,ugm-3,2.49828,R,ugm-3,2.63922,R,ugm-3,69.00133,R,ugm-3
08-01-2018,01:00,0.12254,R,ugm-3,1.75962,R,ugm-3,1.94751,R,ugm-3,70.04907,R,ugm-3
08-01-2018,02:00,,,,,,,,,,70.11559,R,ugm-3
08-01-2018,03:00,0.18381,R,ugm-3,2.45096,R,ugm-3,2.73279,R,ugm-3,70.54800,R,ugm-3
08-01-2018,04:00,0.12254,R,ugm-3,2.26220,R,ugm-3,2.45009,R,ugm-3,69.45036,R,ugm-3
08-01-2018,05:00,0.12254,R,ugm-3,2.68626,R,ugm-3,2.87415,R,ugm-3,68.65208,R,ugm-3
08-01-2018,06:00,0.12254,R,ugm-3,2.82761,R,ugm-3,3.01550,R,ugm-3,68.35273,R,ugm-3
08-01-2018,07:00,0.09190,R,ugm-3,2.63900,R,ugm-3,2.77991,R,ugm-3,69.15101,R,ugm-3
08-01-2018,08:00,0.00000,R,ugm-3,4.85306,R,ugm-3,4.85306,R,ugm-3,66.10756,R,ugm-3
08-01-2018,09:00,0.15317,R,ugm-3,9.00010,R,ugm-3,9.23496,R,ugm-3,59.87100,R,ugm-3
08-01-2018,10:00,1.34791,R,ugm-3,12.72802,R,ugm-3,14.79478,R,ugm-3,53.43487,R,ugm-3
08-01-2018,11:00,1.47044,R,ugm-3,11.55067,R,ugm-3,13.80532,R,ugm-3,48.74497,R,ugm-3
08-01-2018,12:00,1.86869,R,ugm-3,13.01319,R,ugm-3,15.87847,R,ugm-3,44.50411,R,ugm-3
08-01-2018,13:00,1.19473,R,ugm-3,10.18297,R,ugm-3,12.01487,R,ugm-3,42.55830,R,ugm-3
08-01-2018,14:00,0.64332,R,ugm-3,10.74576,R,ugm-3,11.73216,R,ugm-3,37.81852,R,ugm-3
08-01-2018,15:00,3.09405,R,ugm-3,14.85658,R,ugm-3,19.60073,R,ugm-3,30.48432,R,ugm-3
08-01-2018,16:00,2.97152,R,ugm-3,17.30608,R,ugm-3,21.86235,R,ugm-3,25.89421,R,ugm-3
08-01-2018,17:00,1.22537,R,ugm-3,16.11987,R,ugm-3,17.99874,R,ugm-3,25.14582,R,ugm-3
08-01-2018,18:00,0.24507,R,ugm-3,13.80648,R,ugm-3,14.18226,R,ugm-3,27.39098,R,ugm-3
08-01-2018,19:00,0.24507,R,ugm-3,13.00549,R,ugm-3,13.38126,R,ugm-3,27.79012,R,ugm-3
08-01-2018,20:00,0.24507,R,ugm-3,12.86414,R,ugm-3,13.23991,R,ugm-3,26.99184,R,ugm-3
08-01-2018,21:00,0.24507,R,ugm-3,12.48720,R,ugm-3,12.86298,R,ugm-3,26.59270,R,ugm-3
08-01-2018,22:00,0.24507,R,ugm-3,14.08918,R,ugm-3,14.46496,R,ugm-3,23.49937,R,ugm-3
08-01-2018,23:00,0.24507,R,ugm-3,15.12576,R,ugm-3,15.50154,R,ugm-3,22.05249,R,ugm-3
08-01-2018,24:00,0.33698,R,ugm-3,18.09458,R,ugm-3,18.61126,R,ugm-3,17.36259,R,ugm-3
09-01-2018,01:00,0.36753,R,ugm-3,19.15787,R,ugm-3,19.72141,R,ugm-3,15.43341,R,ugm-3
09-01-2018,02:00,,,,,,,,,,15.03427,R,ugm-3
09-01-2018,03:00,0.36753,R,ugm-3,19.50331,R,ugm-3,20.06685,R,ugm-3,14.46883,R,ugm-3
09-01-2018,04:00,0.36753,R,ugm-3,19.26778,R,ugm-3,19.83133,R,ugm-3,14.21936,R,ugm-3
09-01-2018,05:00,0.39816,R,ugm-3,20.39845,R,ugm-3,21.00896,R,ugm-3,12.87227,R,ugm-3
09-01-2018,06:00,0.36753,R,ugm-3,20.86936,R,ugm-3,21.43290,R,ugm-3,12.32345,R,ugm-3
09-01-2018,07:00,0.36753,R,ugm-3,21.99989,R,ugm-3,22.56343,R,ugm-3,12.57291,R,ugm-3
09-01-2018,08:00,0.36753,R,ugm-3,24.11962,R,ugm-3,24.68317,R,ugm-3,10.27786,R,ugm-3
09-01-2018,09:00,1.59265,R,ugm-3,24.83193,R,ugm-3,27.27396,R,ugm-3,8.83097,R,ugm-3
09-01-2018,10:00,2.05207,R,ugm-3,23.13829,R,ugm-3,26.28475,R,ugm-3,9.23011,R,ugm-3
09-01-2018,11:00,3.70598,R,ugm-3,23.14602,R,ugm-3,28.82843,R,ugm-3,9.03054,R,ugm-3
09-01-2018,12:00,4.80858,R,ugm-3,24.75275,R,ugm-3,32.12580,R,ugm-3,8.18237,R,ugm-3
09-01-2018,13:00,7.19756,R,ugm-3,27.68445,R,ugm-3,38.72054,R,ugm-3,6.33635,R,ugm-3
09-01-2018,14:00,7.99388,R,ugm-3,30.79712,R,ugm-3,43.05423,R,ugm-3,4.34065,R,ugm-3
09-01-2018,15:00,9.49465,R,ugm-3,32.35861,R,ugm-3,46.91686,R,ugm-3,4.14108,R,ugm-3
09-01-2018,16:00,13.07811,R,ugm-3,34.49509,R,ugm-3,54.54792,R,ugm-3,2.24516,R,ugm-3
09-01-2018,17:00,18.80553,R,ugm-3,36.78292,R,ugm-3,65.61766,R,ugm-3,1.09764,R,ugm-3
09-01-2018,18:00,21.53141,R,ugm-3,37.03119,R,ugm-3,70.04556,R,ugm-3,1.14753,R,ugm-3
09-01-2018,19:00,21.37827,R,ugm-3,35.66442,R,ugm-3,68.44398,R,ugm-3,1.14753,R,ugm-3
09-01-2018,20:00,22.45025,R,ugm-3,34.30338,R,ugm-3,68.72661,R,ugm-3,1.29721,R,ugm-3
09-01-2018,21:00,22.94029,R,ugm-3,34.63540,R,ugm-3,69.81003,R,ugm-3,1.24731,R,ugm-3
09-01-2018,22:00,22.26648,R,ugm-3,36.09252,R,ugm-3,70.23398,R,ugm-3,1.34710,R,ugm-3
09-01-2018,23:00,22.32774,R,ugm-3,40.47360,R,ugm-3,74.70898,R,ugm-3,1.24731,R,ugm-3
09-01-2018,24:00,15.49772,R,ugm-3,42.04325,R,ugm-3,65.80608,R,ugm-3,1.14753,R,ugm-3
10-01-2018,01:00,8.12493,R,ugm-3,41.35405,R,ugm-3,53.81211,R,ugm-3,1.26394,R,ugm-3
10-01-2018,02:00,,,,,,,,,,9.18022,R,ugm-3
10-01-2018,03:00,0.48995,R,ugm-3,22.93676,R,ugm-3,23.68800,R,ugm-3,13.12173,R,ugm-3
10-01-2018,04:00,0.39808,R,ugm-3,18.88630,R,ugm-3,19.49669,R,ugm-3,12.97205,R,ugm-3
10-01-2018,05:00,0.36746,R,ugm-3,17.28499,R,ugm-3,17.84841,R,ugm-3,12.37334,R,ugm-3
10-01-2018,06:00,0.30622,R,ugm-3,15.35387,R,ugm-3,15.82340,R,ugm-3,12.97205,R,ugm-3
10-01-2018,07:00,0.30622,R,ugm-3,14.12944,R,ugm-3,14.59897,R,ugm-3,12.17377,R,ugm-3
10-01-2018,08:00,0.55119,R,ugm-3,16.06140,R,ugm-3,16.90655,R,ugm-3,9.52947,R,ugm-3
10-01-2018,09:00,0.97989,R,ugm-3,15.40407,R,ugm-3,16.90655,R,ugm-3,10.87657,R,ugm-3
10-01-2018,10:00,5.29754,R,ugm-3,28.18627,R,ugm-3,36.30904,R,ugm-3,8.23226,R,ugm-3
10-01-2018,11:00,11.78931,R,ugm-3,37.06972,R,ugm-3,55.14642,R,ugm-3,,,
10-01-2018,12:00,10.41134,R,ugm-3,37.01629,R,ugm-3,52.98012,R,ugm-3,11.37549,R,ugm-3
10-01-2018,13:00,7.04297,R,ugm-3,30.97282,R,ugm-3,41.77188,R,ugm-3,22.50152,R,ugm-3
10-01-2018,14:00,3.61335,R,ugm-3,23.18661,R,ugm-3,28.72700,R,ugm-3,32.92905,R,ugm-3
10-01-2018,15:00,1.43922,R,ugm-3,19.36203,R,ugm-3,21.56880,R,ugm-3,34.32604,R,ugm-3
10-01-2018,16:00,2.54159,R,ugm-3,33.21258,R,ugm-3,37.10963,R,ugm-3,20.50582,R,ugm-3
10-01-2018,17:00,1.37797,R,ugm-3,39.84740,R,ugm-3,41.96026,R,ugm-3,13.92001,R,ugm-3
10-01-2018,18:00,0.82678,R,ugm-3,44.31874,R,ugm-3,45.58645,R,ugm-3,7.33420,R,ugm-3
10-01-2018,19:00,0.76554,R,ugm-3,41.30447,R,ugm-3,42.47828,R,ugm-3,8.03269,R,ugm-3
10-01-2018,20:00,1.10238,R,ugm-3,45.92118,R,ugm-3,47.61147,R,ugm-3,4.83957,R,ugm-3
10-01-2018,21:00,0.82678,R,ugm-3,46.53213,R,ugm-3,47.79984,R,ugm-3,4.34065,R,ugm-3
10-01-2018,22:00,0.97989,R,ugm-3,49.17006,R,ugm-3,50.67254,R,ugm-3,3.49248,R,ugm-3
10-01-2018,23:00,3.21527,R,ugm-3,52.00596,R,ugm-3,56.93597,R,ugm-3,1.69635,R,ugm-3
10-01-2018,24:00,1.43922,R,ugm-3,47.28844,R,ugm-3,49.49521,R,ugm-3,6.73549,R,ugm-3
11-01-2018,01:00,0.65313,R,ugm-3,37.60547,R,ugm-3,38.60691,R,ugm-3,12.43986,R,ugm-3
11-01-2018,02:00,,,,,,,,,,7.05147,R,ugm-3
11-01-2018,03:00,3.30645,R,ugm-3,42.24718,R,ugm-3,47.31701,R,ugm-3,2.19527,R,ugm-3
11-01-2018,04:00,3.12276,R,ugm-3,37.53819,R,ugm-3,42.32636,R,ugm-3,1.24731,R,ugm-3
11-01-2018,05:00,1.37769,R,ugm-3,35.22328,R,ugm-3,37.33571,R,ugm-3,1.09764,R,ugm-3
11-01-2018,06:00,0.94907,R,ugm-3,32.06687,R,ugm-3,33.52210,R,ugm-3,1.64645,R,ugm-3
11-01-2018,07:00,0.36738,R,ugm-3,23.91912,R,ugm-3,24.48243,R,ugm-3,5.63785,R,ugm-3
11-01-2018,08:00,0.27554,R,ugm-3,19.02222,R,ugm-3,19.44470,R,ugm-3,9.57936,R,ugm-3
11-01-2018,09:00,0.48985,R,ugm-3,17.23409,R,ugm-3,17.98517,R,ugm-3,11.62495,R,ugm-3
11-01-2018,10:00,1.28584,R,ugm-3,17.04937,R,ugm-3,19.02097,R,ugm-3,12.17377,R,ugm-3
11-01-2018,11:00,3.36768,R,ugm-3,21.15491,R,ugm-3,26.31861,R,ugm-3,9.77893,R,ugm-3
11-01-2018,12:00,5.69445,R,ugm-3,24.93198,R,ugm-3,33.66334,R,ugm-3,7.78323,R,ugm-3
11-01-2018,13:00,7.13336,R,ugm-3,24.32645,R,ugm-3,35.26412,R,ugm-3,9.82882,R,ugm-3
11-01-2018,14:00,5.69445,R,ugm-3,24.27284,R,ugm-3,33.00420,R,ugm-3,11.97420,R,ugm-3
11-01-2018,15:00,3.79630,R,ugm-3,26.19458,R,ugm-3,32.01549,R,ugm-3,10.62710,R,ugm-3
11-01-2018,16:00,3.06153,R,ugm-3,31.37023,R,ugm-3,36.06450,R,ugm-3,7.03484,R,ugm-3
11-01-2018,17:00,1.37769,R,ugm-3,33.34002,R,ugm-3,35.45244,R,ugm-3,5.43828,R,ugm-3
11-01-2018,18:00,0.70415,R,ugm-3,33.57237,R,ugm-3,34.65206,R,ugm-3,4.29076,R,ugm-3
11-01-2018,19:00,0.94907,R,ugm-3,34.23263,R,ugm-3,35.68785,R,ugm-3,3.59226,R,ugm-3
11-01-2018,20:00,0.52046,R,ugm-3,29.71085,R,ugm-3,30.50888,R,ugm-3,6.43613,R,ugm-3
11-01-2018,21:00,0.48985,R,ugm-3,24.06092,R,ugm-3,24.81200,R,ugm-3,11.92431,R,ugm-3
11-01-2018,22:00,0.48985,R,ugm-3,26.03835,R,ugm-3,26.78943,R,ugm-3,11.02624,R,ugm-3
11-01-2018,23:00,0.61231,R,ugm-3,28.48714,R,ugm-3,29.42600,R,ugm-3,7.98280,R,ugm-3
11-01-2018,24:00,0.48985,R,ugm-3,24.20216,R,ugm-3,24.95325,R,ugm-3,10.12818,R,ugm-3
12-01-2018,01:00,0.36731,R,ugm-3,19.33162,R,ugm-3,19.89482,R,ugm-3,14.10295,R,ugm-3
12-01-2018,02:00,,,,,,,,,,17.62868,R,ugm-3
12-01-2018,03:00,0.33670,R,ugm-3,11.72187,R,ugm-3,12.23814,R,ugm-3,18.46023,R,ugm-3
12-01-2018,04:00,0.36731,R,ugm-3,12.75754,R,ugm-3,13.32074,R,ugm-3,14.86797,R,ugm-3
12-01-2018,05:00,0.30609,R,ugm-3,12.42778,R,ugm-3,12.89711,R,ugm-3,12.82237,R,ugm-3
12-01-2018,06:00,0.27548,R,ugm-3,12.28644,R,ugm-3,12.70883,R,ugm-3,13.57076,R,ugm-3
12-01-2018,07:00,0.33670,R,ugm-3,13.46345,R,ugm-3,13.97972,R,ugm-3,12.77248,R,ugm-3
12-01-2018,08:00,0.33670,R,ugm-3,16.09936,R,ugm-3,16.61562,R,ugm-3,10.37764,R,ugm-3
12-01-2018,09:00,2.35689,R,ugm-3,19.87396,R,ugm-3,23.48781,R,ugm-3,9.18022,R,ugm-3
12-01-2018,10:00,1.62228,R,ugm-3,17.04649,R,ugm-3,19.53395,R,ugm-3,12.37334,R,ugm-3
12-01-2018,11:00,1.89776,R,ugm-3,18.55395,R,ugm-3,21.46381,R,ugm-3,14.11958,R,ugm-3
12-01-2018,12:00,2.99968,R,ugm-3,20.11218,R,ugm-3,24.71162,R,ugm-3,15.56646,R,ugm-3
12-01-2018,13:00,4.22404,R,ugm-3,22.04750,R,ugm-3,28.52427,R,ugm-3,16.96345,R,ugm-3
12-01-2018,14:00,3.73430,R,ugm-3,21.19806,R,ugm-3,26.92390,R,ugm-3,21.95270,R,ugm-3
12-01-2018,15:00,4.31587,R,ugm-3,28.54354,R,ugm-3,35.16111,R,ugm-3,12.17377,R,ugm-3
12-01-2018,16:00,7.22372,R,ugm-3,35.19335,R,ugm-3,46.26957,R,ugm-3,5.88732,R,ugm-3
12-01-2018,17:00,10.37645,R,ugm-3,41.70305,R,ugm-3,57.61338,R,ugm-3,1.39699,R,ugm-3
12-01-2018,18:00,3.24455,R,ugm-3,45.62507,R,ugm-3,50.59999,R,ugm-3,2.44473,R,ugm-3
12-01-2018,19:00,0.73462,R,ugm-3,37.70615,R,ugm-3,38.83255,R,ugm-3,9.62925,R,ugm-3
12-01-2018,20:00,0.52035,R,ugm-3,34.92808,R,ugm-3,35.72594,R,ugm-3,12.72259,R,ugm-3
12-01-2018,21:00,0.48974,R,ugm-3,28.38525,R,ugm-3,29.13618,R,ugm-3,18.06109,R,ugm-3
12-01-2018,22:00,0.39792,R,ugm-3,26.21963,R,ugm-3,26.82976,R,ugm-3,20.15657,R,ugm-3
12-01-2018,23:00,0.48974,R,ugm-3,28.19697,R,ugm-3,28.94790,R,ugm-3,20.25636,R,ugm-3
12-01-2018,24:00,0.48974,R,ugm-3,25.32572,R,ugm-3,26.07665,R,ugm-3,29.13722,R,ugm-3
13-01-2018,01:00,0.36723,R,ugm-3,21.02081,R,ugm-3,21.58390,R,ugm-3,33.19514,R,ugm-3
13-01-2018,02:00,,,,,,,,,,50.09207,R,ugm-3
13-01-2018,03:00,0.24482,R,ugm-3,9.83618,R,ugm-3,10.21157,R,ugm-3,51.93809,R,ugm-3
13-01-2018,04:00,0.24482,R,ugm-3,8.33033,R,ugm-3,8.70571,R,ugm-3,50.24175,R,ugm-3